QPF
0.00 0.00 0.00 0.00 0.00 0.00 0.00 0.00 0.00 0.00 0.00 0.00 0.00 0.00 0.00 0.00 0.00 0.00 0.00 0.00 0.00 0.00 0.00 0.00 0.00 0.00 0.00 0.00 0.01 0.01 0.01 0.00 0.00 0.01 0.01 0.03 0.02 0.00 0.00 0.00 0.00 0.00 0.00 0.00
0.00 0.00 0.00 0.00 0.00 0.00 0.00 0.00 0.00 0.00 0.00 0.00 0.00 0.00 0.00 0.00 0.00 0.00 0.00 0.00 0.00 0.00 0.00 0.00 0.00 0.00 0.00 0.00 0.00 0.01 0.02 0.01 0.00 0.01 0.02 0.03 0.03 0.02 0.00 0.00 0.00 0.00 0.00 0.00
0.00 0.00 0.00 0.00 0.00 0.00 0.00 0.00 0.00 0.00 0.00 0.00 0.00 0.00 0.00 0.00 0.00 0.00 0.00 0.00 0.00 0.00 0.00 0.00 0.00 0.00 0.00 0.00 0.00 0.00 0.02 0.02 0.01 0.00 0.00 0.02 0.02 0.03 0.02 0.00 0.00 0.00 0.00 0.00
0.00 0.00 0.00 0.00 0.00 0.00 0.00 0.00 0.00 0.00 0.00 0.00 0.00 0.01 0.00 0.00 0.00 0.00 0.00 0.00 0.00 0.00 0.00 0.00 0.00 0.00 0.00 0.00 0.00 0.00 0.02 0.02 0.01 0.00 0.00 0.01 0.02 0.02 0.03 0.03 0.00 0.00 0.00 0.00
0.00 0.00 0.00 0.00 0.00 0.00 0.00 0.00 0.00 0.00 0.00 0.00 0.00 0.00 0.00 0.00 0.00 0.00 0.00 0.00 0.00 0.00 0.00 0.00 0.00 0.00 0.00 0.00 0.01 0.04 0.01 0.01 0.01 0.00 0.00 0.00 0.01 0.01 0.05 0.13 0.05 0.00 0.00 0.00
0.00 0.00 0.00 0.00 0.00 0.00 0.00 0.00 0.00 0.00 0.00 0.00 0.00 0.00 0.00 0.00 0.00 0.00 0.00 0.00 0.00 0.00 0.00 0.00 0.00 0.00 0.00 0.00 0.00 0.01 0.04 0.03 0.01 0.01 0.01 0.01 0.00 0.01 0.02 0.06 0.09 0.03 0.00 0.00
0.00 0.00 0.00 0.00 0.00 0.00 0.00 0.00 0.00 0.00 0.00 0.00 0.00 0.00 0.00 0.00 0.00 0.00 0.00 0.00 0.00 0.00 0.00 0.00 0.00 0.00 0.00 0.00 0.01 0.00 0.02 0.08 0.03 0.02 0.05 0.03 0.00 0.01 0.01 0.01 0.00 0.00 0.00 0.00
0.00 0.00 0.00 0.00 0.00 0.00 0.00 0.00 0.03 0.04 0.00 0.00 0.00 0.00 0.00 0.00 0.00 0.00 0.00 0.00 0.00 0.00 0.00 0.00 0.00 0.00 0.00 0.00 0.00 0.01 0.01 0.11 0.27 0.09 0.07 0.04 0.01 0.01 0.02 0.02 0.01 0.00 0.00 0.00
0.00 0.00 0.00 0.00 0.00 0.00 0.00 0.00 0.00 0.07 0.01 0.01 0.00 0.00 0.00 0.00 0.00 0.00 0.00 0.00 0.00 0.00 0.00 0.00 0.00 0.00 0.00 0.00 0.00 0.00 0.02 0.03 0.09 0.28 0.33 0.09 0.01 0.01 0.03 0.05 0.07 0.07 0.04 0.01
0.00 0.00 0.00 0.00 0.00 0.00 0.00 0.00 0.01 0.03 0.02 0.01 0.00 0.00 0.00 0.00 0.00 0.00 0.00 0.00 0.00 0.00 0.00 0.00 0.00 0.00 0.00 0.00 0.00 0.00 0.01 0.01 0.02 0.06 0.26 0.43 0.25 0.03 0.02 0.07 0.15 0.17 0.17 0.10
0.00 0.00 0.00 0.00 0.00 0.00 0.00 0.00 0.02 0.03 0.02 0.07 0.03 0.00 0.00 0.00 0.00 0.00 0.00 0.00 0.00 0.00 0.00 0.00 0.00 0.00 0.00 0.00 0.00 0.00 0.00 0.02 0.03 0.04 0.06 0.18 0.22 0.14 0.06 0.14 0.21 0.23 0.20 0.16
0.00 0.00 0.00 0.00 0.00 0.00 0.00 0.00 0.05 0.06 0.04 0.03 0.06 0.01 0.00 0.00 0.00 0.00 0.00 0.00 0.00 0.00 0.00 0.00 0.00 0.00 0.00 0.00 0.00 0.00 0.01 0.06 0.04 0.02 0.03 0.07 0.16 0.13 0.10 0.13 0.24 0.31 0.26 0.17
0.00 0.00 0.00 0.00 0.00 0.00 0.00 0.00 0.02 0.09 0.06 0.02 0.07 0.01 0.00 0.00 0.00 0.00 0.00 0.00 0.00 0.00 0.00 0.00 0.00 0.00 0.00 0.00 0.00 0.00 0.01 0.04 0.04 0.01 0.01 0.02 0.04 0.07 0.16 0.19 0.30 0.36 0.31 0.18
0.00 0.00 0.00 0.00 0.00 0.00 0.00 0.00 0.00 0.10 0.10 0.06 0.02 0.04 0.00 0.03 0.04 0.02 0.01 0.00 0.00 0.00 0.00 0.00 0.00 0.01 0.02 0.02 0.02 0.03 0.03 0.02 0.02 0.03 0.03 0.02 0.02 0.05 0.16 0.31 0.35 0.26 0.27 0.25
0.00 0.00 0.00 0.00 0.00 0.00 0.00 0.00 0.00 0.03 0.06 0.12 0.04 0.04 0.12 0.16 0.20 0.10 0.06 0.02 0.01 0.01 0.03 0.05 0.05 0.04 0.05 0.04 0.04 0.05 0.05 0.06 0.03 0.04 0.07 0.07 0.05 0.09 0.11 0.22 0.36 0.41 0.40 0.32
0.00 0.00 0.00 0.00 0.00 0.00 0.00 0.00 0.00 0.03 0.03 0.02 0.01 0.02 0.03 0.03 0.08 0.03 0.04 0.04 0.03 0.07 0.14 0.12 0.09 0.07 0.07 0.05 0.04 0.07 0.12 0.09 0.07 0.08 0.07 0.19 0.12 0.10 0.16 0.22 0.26 0.29 0.30 0.25
0.00 0.00 0.00 0.00 0.00 0.00 0.00 0.00 0.00 0.02 0.03 0.09 0.12 0.11 0.06 0.13 0.10 0.13 0.09 0.07 0.07 0.09 0.11 0.09 0.08 0.08 0.08 0.06 0.09 0.21 0.31 0.28 0.18 0.24 0.15 0.16 0.19 0.19 0.21 0.20 0.22 0.18 0.12 0.10
0.00 0.00 0.00 0.00 0.00 0.00 0.00 0.00 0.00 0.01 0.00 0.03 0.02 0.01 0.05 0.29 0.18 0.14 0.11 0.12 0.09 0.08 0.10 0.08 0.07 0.08 0.13 0.17 0.21 0.36 0.33 0.29 0.26 0.26 0.26 0.20 0.22 0.24 0.28 0.23 0.14 0.09 0.06 0.04
0.00 0.00 0.00 0.00 0.00 0.00 0.00 0.00 0.00 0.00 0.00 0.00 0.00 0.00 0.01 0.06 0.04 0.06 0.15 0.18 0.13 0.08 0.10 0.10 0.12 0.18 0.32 0.33 0.25 0.27 0.22 0.24 0.18 0.21 0.25 0.25 0.25 0.18 0.16 0.13 0.09 0.05 0.03 0.01
0.00 0.00 0.00 0.00 0.00 0.00 0.00 0.00 0.00 0.00 0.00 0.00 0.00 0.00 0.00 0.00 0.03 0.12 0.18 0.18 0.17 0.14 0.16 0.21 0.26 0.23 0.23 0.25 0.15 0.14 0.19 0.19 0.21 0.18 0.18 0.14 0.11 0.08 0.07 0.04 0.02 0.00 0.00 0.00
0.00 0.01 0.01 0.00 0.00 0.00 0.00 0.00 0.00 0.00 0.00 0.00 0.00 0.00 0.00 0.03 0.19 0.19 0.19 0.16 0.15 0.16 0.17 0.19 0.17 0.13 0.18 0.22 0.12 0.16 0.14 0.14 0.14 0.10 0.07 0.07 0.05 0.02 0.00 0.00 0.00 0.00 0.00 0.00
0.00 0.00 0.00 0.00 0.00 0.00 0.00 0.00 0.00 0.00 0.00 0.00 0.00 0.00 0.00 0.00 0.05 0.16 0.12 0.09 0.07 0.10 0.17 0.15 0.07 0.13 0.22 0.25 0.10 0.13 0.08 0.10 0.07 0.02 0.00 0.00 0.00 0.00 0.00 0.00 0.00 0.00 0.00 0.00
0.00 0.00 0.00 0.00 0.00 0.00 0.00 0.00 0.00 0.00 0.00 0.00 0.00 0.00 0.00 0.00 0.00 0.03 0.06 0.06 0.05 0.05 0.07 0.09 0.04 0.03 0.05 0.06 0.02 0.01 0.00 0.00 0.00 0.00 0.00 0.00 0.00 0.00 0.00 0.00 0.00 0.00 0.00 0.00
0.00 0.00 0.00 0.00 0.00 0.00 0.00 0.00 0.00 0.00 0.00 0.00 0.00 0.00 0.00 0.00 0.00 0.00 0.01 0.02 0.01 0.01 0.01 0.01 0.00 0.00 0.00 0.00 0.00 0.00 0.00 0.00 0.00 0.00 0.00 0.00 0.00 0.00 0.00 0.00 0.00 0.00 0.00 0.00
0.00 0.00 0.00 0.00 0.00 0.00 0.00 0.00 0.00 0.00 0.00 0.00 0.00 0.00 0.00 0.00 0.00 0.00 0.00 0.00 0.01 0.00 0.01 0.01 0.00 0.00 0.00 0.00 0.00 0.00 0.00 0.00 0.00 0.00 0.00 0.00 0.00 0.00 0.00 0.00 0.00 0.00 0.00 0.00
0.00 0.00 0.00 0.00 0.00 0.00 0.00 0.00 0.00 0.00 0.00 0.00 0.00 0.00 0.00 0.00 0.00 0.00 0.00 0.00 0.00 0.00 0.00 0.00 0.00 0.00 0.00 0.00 0.00 0.00 0.00 0.00 0.00 0.00 0.00 0.00 0.00 0.00 0.00 0.00 0.00 0.00 0.00 0.00
MSLP
1020.43 1020.82 1021.04 1021.23 1021.25 1021.32 1021.12 1020.86 1020.06 1018.75 1017.23 1016.84 1015.97 1014.15 1013.12 1011.28 1010.90 1010.48 1009.93 1009.46 1008.69 1008.35 1007.83 1007.18 1006.64 1006.27 1006.34 1006.59 1006.84 1007.25 1007.56 1008.05 1008.90 1009.48 1010.21 1010.98 1011.47 1012.12 1012.54 1013.05 1013.54 1013.97 1014.77 1015.52
1021.37 1021.36 1021.06 1021.10 1021.13 1021.13 1020.85 1020.59 1019.56 1018.21 1017.20 1017.10 1015.42 1013.94 1012.40 1011.03 1010.61 1010.16 1009.83 1009.54 1009.06 1008.21 1007.81 1007.30 1006.68 1006.27 1005.90 1005.89 1006.10 1006.30 1006.71 1007.12 1007.79 1008.67 1009.32 1010.20 1010.93 1012.03 1012.55 1013.23 1013.64 1013.96 1014.58 1015.15
1022.35 1021.41 1021.10 1021.14 1021.00 1020.91 1020.60 1020.22 1019.36 1018.54 1017.34 1016.63 1015.63 1013.94 1011.88 1010.79 1010.52 1010.24 1010.07 1009.95 1009.57 1009.01 1008.25 1007.70 1007.21 1006.52 1005.90 1005.44 1005.47 1005.55 1005.75 1006.25 1006.99 1007.69 1009.01 1010.34 1011.31 1012.29 1012.97 1013.71 1014.14 1014.61 1014.82 1015.39
1022.38 1021.36 1021.45 1021.30 1021.13 1020.85 1020.22 1019.38 1019.23 1018.53 1018.33 1017.21 1016.56 1015.23 1012.03 1010.90 1010.38 1010.47 1010.38 1010.16 1009.93 1009.47 1008.84 1008.24 1007.73 1007.04 1006.51 1005.32 1004.75 1004.71 1004.95 1005.52 1006.19 1006.96 1008.17 1008.96 1009.73 1011.26 1012.27 1013.05 1013.80 1014.58 1015.17 1015.86
1022.46 1021.91 1021.62 1021.37 1020.94 1020.83 1020.19 1019.60 1019.24 1018.47 1018.36 1017.95 1016.58 1016.24 1012.04 1011.18 1010.71 1010.77 1010.67 1010.46 1010.18 1009.95 1009.50 1008.81 1008.26 1007.62 1006.67 1005.72 1004.55 1004.38 1004.46 1004.80 1005.48 1006.20 1006.76 1008.00 1009.16 1010.58 1011.98 1012.96 1014.25 1015.46 1015.34 1016.10
1023.20 1022.36 1021.97 1021.28 1020.82 1020.56 1020.36 1019.81 1018.72 1018.70 1018.60 1018.10 1016.54 1016.15 1012.04 1011.34 1011.13 1010.92 1010.68 1010.60 1010.28 1010.01 1009.52 1009.04 1008.52 1007.80 1006.96 1005.96 1004.76 1003.95 1004.08 1004.42 1004.86 1005.70 1006.27 1007.16 1008.48 1010.28 1011.95 1013.38 1014.30 1014.78 1016.20 1016.62
1024.31 1022.81 1021.99 1021.48 1021.29 1020.78 1020.92 1020.92 1020.49 1020.21 1019.44 1018.02 1016.40 1015.64 1012.34 1011.26 1011.12 1011.24 1010.98 1010.33 1010.18 1009.99 1009.54 1009.03 1008.44 1007.74 1006.96 1006.40 1005.38 1004.27 1003.68 1003.90 1004.51 1005.24 1006.04 1006.76 1007.96 1009.04 1010.42 1012.04 1013.45 1014.82 1015.98 1016.88
1026.84 1024.05 1022.89 1022.49 1022.37 1021.80 1021.75 1022.10 1022.48 1021.47 1020.06 1017.68 1015.71 1014.24 1011.42 1011.05 1011.26 1011.26 1011.08 1010.59 1010.28 1010.06 1009.78 1009.04 1008.51 1008.04 1007.27 1006.65 1005.78 1005.00 1003.62 1003.67 1004.20 1004.88 1005.56 1006.40 1007.66 1008.88 1010.40 1011.43 1012.81 1014.00 1015.22 1016.51
1027.52 1025.81 1023.20 1022.65 1022.10 1022.06 1021.83 1022.09 1021.55 1021.18 1019.76 1018.36 1015.31 1013.07 1011.23 1011.14 1010.92 1010.62 1010.39 1010.37 1009.89 1009.35 1008.86 1008.72 1008.37 1007.87 1007.18 1006.52 1005.88 1005.19 1004.53 1003.30 1003.83 1004.88 1005.30 1006.26 1007.50 1008.52 1010.13 1011.89 1013.20 1014.24 1015.64 1016.76
1027.97 1027.08 1024.15 1023.16 1022.18 1021.84 1021.97 1022.06 1021.86 1021.51 1020.49 1018.34 1015.08 1013.22 1011.97 1011.46 1011.20 1011.30 1011.19 1010.64 1009.90 1009.44 1008.80 1008.32 1008.02 1007.45 1006.94 1006.29 1005.68 1005.00 1004.49 1003.66 1003.79 1004.69 1005.78 1006.50 1007.38 1008.90 1010.36 1012.01 1013.38 1014.56 1015.63 1017.07
1027.91 1028.25 1025.21 1024.00 1023.00 1022.74 1022.67 1022.34 1022.44 1022.13 1020.96 1019.12 1016.16 1013.00 1011.83 1011.68 1011.72 1011.42 1011.37 1010.94 1010.20 1009.57 1008.79 1008.10 1007.53 1007.02 1006.38 1005.64 1005.09 1004.67 1004.30 1003.83 1003.78 1004.77 1006.10 1007.66 1008.11 1009.51 1010.76 1012.60 1013.94 1015.11 1016.37 1017.50
1028.13 1028.42 1027.35 1024.78 1023.12 1023.03 1023.07 1022.76 1022.81 1022.27 1021.06 1019.68 1017.82 1013.40 1011.78 1011.62 1011.66 1011.72 1011.48 1011.08 1010.75 1010.00 1008.82 1007.85 1007.13 1006.47 1005.80 1005.05 1004.22 1003.65 1003.76 1003.78 1003.90 1005.46 1006.89 1008.37 1009.19 1010.95 1011.94 1013.48 1014.92 1016.25 1017.09 1017.70
1028.26 1028.89 1028.35 1025.46 1024.06 1023.40 1023.28 1022.80 1022.88 1022.62 1021.58 1019.37 1017.79 1013.81 1011.89 1011.92 1011.94 1012.00 1011.76 1011.53 1010.87 1010.05 1008.93 1007.83 1007.06 1006.28 1005.82 1005.15 1004.04 1002.82 1003.32 1003.96 1005.00 1006.32 1007.82 1009.17 1010.44 1011.70 1013.26 1014.45 1015.59 1017.42 1018.51 1019.40
1028.12 1028.97 1029.36 1027.97 1025.67 1025.06 1024.13 1022.92 1022.42 1022.53 1021.25 1019.00 1017.09 1014.78 1012.79 1012.56 1012.39 1011.84 1011.89 1011.88 1011.27 1010.51 1009.34 1008.27 1007.37 1006.81 1006.41 1005.84 1005.05 1004.27 1004.74 1005.12 1005.77 1007.02 1008.57 1009.98 1011.19 1012.64 1013.95 1015.34 1016.57 1017.57 1019.48 1020.05
1028.72 1029.26 1029.02 1027.87 1026.49 1025.44 1024.32 1023.16 1021.86 1021.66 1020.23 1019.10 1016.95 1015.70 1014.59 1014.17 1013.58 1013.26 1013.31 1012.59 1011.72 1010.82 1009.82 1008.91 1008.12 1007.57 1007.16 1006.72 1006.46 1006.04 1006.23 1006.76 1007.01 1007.88 1009.52 1011.25 1012.25 1013.54 1014.64 1016.19 1017.55 1018.82 1019.92 1020.85
1029.23 1029.59 1029.20 1027.35 1025.82 1025.05 1023.71 1022.11 1021.16 1020.45 1019.42 1018.52 1017.54 1016.16 1015.67 1014.74 1014.24 1014.06 1013.80 1013.27 1012.63 1011.76 1010.75 1009.89 1009.22 1008.61 1008.16 1007.86 1007.81 1007.65 1007.83 1008.22 1008.35 1009.29 1010.64 1012.10 1013.18 1014.82 1015.56 1017.28 1018.77 1019.94 1021.08 1022.14
1029.58 1030.04 1030.03 1028.64 1026.46 1024.71 1023.25 1020.96 1020.14 1019.56 1018.84 1018.74 1018.20 1017.52 1016.14 1015.03 1014.57 1014.78 1014.54 1014.18 1013.67 1012.89 1012.02 1011.11 1010.48 1009.96 1009.58 1009.32 1009.26 1009.21 1009.46 1009.84 1010.03 1010.70 1012.26 1013.27 1014.16 1015.75 1017.34 1018.75 1019.89 1021.13 1022.25 1022.97
1029.87 1030.31 1030.62 1029.92 1027.70 1025.07 1021.89 1020.34 1019.54 1019.12 1018.22 1018.71 1018.54 1017.64 1017.28 1016.21 1015.37 1015.59 1015.57 1015.18 1014.70 1014.02 1013.30 1012.56 1011.85 1011.42 1011.22 1010.98 1010.94 1011.06 1010.94 1011.18 1011.82 1012.41 1013.64 1014.83 1015.65 1017.04 1018.72 1019.60 1021.37 1022.72 1023.20 1024.23
1029.99 1030.33 1031.23 1031.48 1030.10 1025.81 1021.74 1020.04 1019.57 1019.32 1018.42 1018.63 1018.52 1017.73 1017.31 1016.39 1015.34 1015.83 1016.31 1016.12 1015.78 1015.31 1014.70 1014.16 1013.55 1013.16 1012.87 1012.78 1012.81 1012.54 1012.66 1013.06 1013.76 1014.43 1015.40 1016.57 1017.62 1018.60 1019.92 1021.02 1022.70 1023.66 1024.12 1024.55
1030.20 1030.38 1031.26 1032.06 1030.69 1026.53 1021.71 1019.94 1019.35 1019.29 1018.87 1018.77 1018.80 1018.44 1018.12 1017.14 1016.39 1017.34 1017.28 1017.04 1016.69 1016.27 1015.79 1015.40 1014.97 1014.73 1014.07 1014.73 1014.64 1014.55 1015.06 1015.41 1016.18 1017.13 1017.92 1018.85 1019.60 1020.17 1021.13 1022.39 1023.61 1024.20 1024.73 1025.36
1030.60 1030.48 1030.84 1031.21 1029.86 1025.39 1021.29 1020.04 1019.46 1019.50 1019.62 1018.92 1019.33 1019.42 1019.06 1018.81 1019.20 1018.92 1018.39 1017.93 1017.61 1017.35 1016.99 1016.67 1016.38 1016.43 1016.61 1016.52 1016.09 1016.87 1017.22 1017.94 1018.70 1018.96 1019.82 1020.53 1021.26 1021.95 1022.68 1023.41 1024.12 1024.82 1025.56 1025.98
1029.38 1029.60 1029.81 1029.80 1028.29 1024.19 1019.98 1019.74 1019.45 1019.43 1019.06 1019.56 1019.79 1019.94 1019.82 1019.57 1019.48 1019.40 1019.24 1018.98 1018.69 1018.43 1018.14 1018.04 1017.91 1018.18 1018.26 1017.96 1017.78 1019.07 1019.46 1020.32 1020.64 1021.00 1021.43 1022.03 1022.37 1022.98 1023.64 1024.32 1025.21 1025.73 1026.10 1026.96
1027.96 1026.27 1026.46 1026.17 1023.10 1020.45 1019.30 1018.92 1018.81 1019.00 1019.46 1019.91 1020.27 1020.38 1020.38 1020.10 1020.07 1020.21 1020.11 1020.01 1019.89 1019.85 1019.71 1019.53 1019.54 1019.81 1020.00 1020.01 1020.05 1020.49 1021.42 1021.66 1021.81 1022.16 1022.88 1023.33 1023.74 1024.29 1025.14 1025.44 1026.03 1026.64 1027.35 1027.90
1026.07 1025.04 1024.78 1023.92 1020.08 1019.54 1019.06 1018.91 1018.81 1019.06 1019.63 1020.16 1020.54 1020.65 1020.65 1020.66 1020.70 1020.76 1020.81 1020.78 1020.81 1020.84 1020.85 1020.84 1020.74 1020.96 1021.36 1021.46 1021.46 1021.69 1022.27 1022.51 1022.89 1023.52 1024.26 1024.70 1024.78 1025.60 1026.12 1026.46 1026.93 1027.31 1027.86 1028.50
1024.93 1024.41 1023.25 1022.06 1020.08 1019.24 1018.65 1018.64 1018.98 1019.44 1020.06 1020.60 1020.88 1021.10 1021.24 1021.15 1021.30 1021.43 1021.44 1021.42 1021.50 1021.64 1021.69 1021.71 1021.88 1022.14 1022.44 1022.45 1022.56 1022.80 1023.16 1023.28 1023.76 1024.47 1025.03 1025.54 1026.05 1026.78 1027.37 1027.70 1027.84 1028.00 1028.64 1028.92
1023.18 1021.78 1021.57 1020.19 1018.90 1018.67 1018.50 1018.45 1019.06 1019.84 1020.46 1021.12 1021.38 1021.81 1021.82 1021.53 1021.60 1021.80 1021.93 1022.03 1022.08 1022.19 1022.42 1022.48 1022.78 1023.06 1023.40 1023.48 1023.72 1023.86 1023.87 1024.01 1024.44 1025.34 1025.99 1026.44 1026.87 1027.27 1027.44 1027.71 1028.10 1027.99 1028.44 1028.94
Thickness
5551 5541 5537 5530 5528 5523 5511 5502 5502 5512 5521 5511 5517 5537 5542 5559 5561 5565 5572 5581 5592 5597 5605 5617 5627 5637 5641 5643 5644 5644 5646 5648 5645 5644 5643 5642 5641 5639 5637 5636 5633 5631 5626 5620
5532 5536 5537 5524 5520 5507 5494 5488 5493 5500 5501 5497 5507 5520 5532 5538 5542 5550 5554 5560 5571 5587 5592 5599 5608 5617 5629 5635 5637 5641 5643 5644 5644 5640 5641 5638 5636 5629 5629 5624 5624 5622 5619 5616
5516 5532 5521 5512 5498 5493 5486 5476 5472 5472 5479 5478 5473 5494 5511 5524 5530 5533 5536 5540 5549 5560 5570 5579 5590 5602 5614 5624 5629 5635 5639 5641 5640 5639 5632 5626 5623 5617 5616 5614 5612 5609 5610 5606
5508 5517 5505 5487 5478 5477 5467 5472 5460 5454 5442 5440 5454 5449 5493 5503 5507 5513 5515 5521 5527 5538 5549 5559 5570 5580 5593 5617 5624 5629 5633 5634 5635 5635 5630 5630 5631 5623 5615 5610 5603 5602 5598 5594
5513 5497 5486 5475 5478 5464 5454 5455 5448 5452 5441 5437 5441 5432 5470 5489 5500 5491 5494 5503 5507 5517 5526 5539 5550 5563 5577 5596 5617 5623 5627 5630 5630 5630 5632 5629 5626 5619 5608 5606 5588 5585 5589 5585
5485 5483 5476 5472 5469 5453 5448 5448 5452 5441 5450 5410 5447 5434 5478 5482 5480 5478 5486 5486 5489 5497 5507 5519 5533 5547 5560 5575 5600 5613 5620 5622 5623 5624 5626 5627 5622 5608 5599 5592 5585 5578 5571 5572
5462 5468 5466 5465 5449 5449 5438 5414 5372 5392 5385 5417 5454 5445 5477 5482 5480 5476 5472 5478 5478 5481 5490 5502 5515 5531 5544 5555 5574 5597 5610 5616 5618 5617 5616 5619 5614 5610 5604 5594 5585 5576 5568 5564
5416 5428 5456 5445 5439 5436 5428 5403 5412 5422 5395 5441 5470 5453 5489 5481 5474 5466 5470 5472 5472 5470 5477 5490 5501 5512 5526 5539 5556 5573 5599 5606 5609 5611 5611 5610 5605 5601 5594 5590 5582 5574 5566 5559
5405 5423 5444 5443 5443 5435 5419 5395 5433 5422 5421 5428 5450 5466 5485 5474 5472 5471 5467 5465 5466 5469 5475 5480 5489 5499 5512 5527 5541 5557 5572 5599 5603 5601 5606 5602 5597 5595 5587 5576 5570 5563 5557 5550
5420 5403 5436 5437 5442 5442 5426 5430 5409 5397 5414 5412 5451 5462 5469 5457 5463 5457 5452 5453 5460 5462 5468 5472 5479 5490 5502 5515 5530 5545 5561 5583 5592 5592 5591 5592 5587 5579 5573 5566 5559 5553 5549 5537
5417 5397 5421 5426 5439 5429 5400 5394 5414 5410 5418 5428 5433 5460 5457 5457 5453 5446 5438 5444 5450 5451 5455 5462 5470 5482 5495 5509 5522 5534 5548 5566 5579 5579 5577 5570 5568 5563 5559 5551 5545 5541 5534 5526
5412 5383 5380 5415 5433 5424 5420 5406 5407 5405 5418 5419 5418 5450 5464 5463 5451 5439 5431 5431 5427 5432 5444 5452 5462 5472 5487 5501 5519 5533 5539 5555 5565 5560 5556 5552 5555 5545 5542 5534 5527 5523 5519 5516
5396 5351 5362 5397 5422 5426 5419 5425 5410 5400 5398 5413 5412 5439 5477 5459 5441 5429 5418 5408 5408 5415 5427 5440 5448 5462 5473 5486 5504 5531 5534 5539 5541 5540 5537 5534 5532 5530 5522 5519 5514 5505 5500 5497
5408 5381 5350 5368 5414 5402 5405 5415 5413 5395 5403 5419 5436 5435 5455 5441 5426 5420 5409 5397 5398 5403 5413 5423 5436 5446 5458 5469 5484 5502 5508 5517 5522 5524 5520 5518 5517 5513 5509 5504 5501 5497 5485 5482
5392 5348 5348 5372 5389 5391 5395 5399 5407 5402 5414 5422 5435 5433 5432 5415 5406 5398 5388 5391 5393 5394 5400 5408 5419 5432 5446 5458 5465 5476 5485 5493 5503 5506 5504 5499 5499 5498 5496 5491 5487 5479 5473 5468
5383 5339 5375 5377 5400 5402 5407 5419 5420 5423 5430 5430 5433 5435 5426 5416 5406 5394 5388 5387 5385 5385 5388 5393 5405 5419 5436 5446 5453 5462 5470 5478 5489 5490 5489 5486 5486 5482 5484 5478 5470 5463 5456 5447
5383 5354 5350 5351 5392 5402 5400 5438 5441 5436 5434 5425 5427 5417 5421 5414 5406 5391 5386 5385 5384 5387 5390 5396 5404 5416 5427 5435 5442 5450 5458 5467 5475 5479 5474 5475 5475 5469 5464 5458 5453 5446 5436 5434
5361 5364 5377 5348 5361 5392 5444 5436 5438 5439 5441 5426 5419 5418 5412 5407 5407 5393 5387 5386 5386 5389 5393 5399 5407 5414 5419 5426 5434 5441 5451 5458 5463 5465 5463 5461 5461 5456 5448 5444 5433 5425 5424 5415
5391 5379 5360 5335 5333 5395 5448 5451 5440 5431 5443 5428 5422 5425 5421 5421 5427 5409 5391 5388 5388 5390 5395 5398 5402 5407 5414 5420 5424 5433 5440 5443 5447 5450 5448 5443 5441 5439 5433 5428 5417 5411 5409 5407
5396 5389 5352 5310 5353 5343 5448 5451 5437 5436 5439 5430 5424 5423 5417 5427 5431 5405 5393 5391 5390 5392 5394 5396 5400 5401 5410 5412 5416 5421 5425 5429 5429 5427 5427 5425 5423 5423 5419 5413 5404 5402 5400 5396
5361 5383 5364 5327 5341 5374 5430 5436 5440 5439 5445 5431 5420 5419 5415 5417 5408 5401 5399 5398 5395 5393 5395 5396 5398 5398 5399 5402 5412 5411 5413 5412 5411 5414 5411 5410 5410 5408 5405 5402 5398 5394 5389 5389
5372 5359 5341 5368 5338 5381 5443 5450 5456 5447 5439 5428 5418 5418 5413 5417 5413 5407 5404 5403 5401 5399 5400 5399 5399 5396 5396 5402 5408 5399 5402 5397 5399 5401 5401 5400 5402 5399 5396 5392 5387 5385 5384 5377
5389 5414 5396 5395 5413 5450 5457 5457 5453 5441 5437 5429 5419 5416 5414 5420 5415 5409 5407 5405 5404 5402 5401 5400 5400 5398 5397 5398 5401 5400 5395 5395 5397 5397 5393 5393 5392 5390 5384 5382 5380 5375 5368 5364
5415 5417 5419 5431 5461 5454 5458 5451 5448 5442 5439 5429 5423 5420 5419 5419 5415 5412 5409 5406 5404 5402 5401 5400 5401 5399 5395 5395 5398 5397 5394 5395 5393 5389 5385 5384 5386 5378 5375 5374 5370 5366 5362 5357
5421 5417 5411 5421 5449 5455 5460 5455 5451 5443 5437 5431 5427 5423 5419 5421 5415 5412 5409 5407 5405 5403 5401 5401 5400 5398 5396 5396 5396 5396 5393 5394 5391 5386 5383 5379 5375 5368 5364 5361 5360 5359 5353 5350
5427 5436 5444 5447 5461 5466 5467 5460 5452 5445 5442 5434 5430 5423 5419 5422 5419 5414 5411 5408 5406 5405 5402 5401 5398 5397 5394 5393 5392 5392 5391 5390 5387 5380 5374 5370 5367 5364 5364 5362 5356 5354 5348 5343